Starlink 3525

operational
NORAD ID: 51733 Int'l Des: 2022-016 Owner: SPXS Country: US Constellation: starlink
LEOCIRCULAR

Starlink 3525について

説明を読み込み中...

リアルタイム位置

3D地球を読み込み中...

次回通過

高度履歴

Altitude vs Time

uPlot chart will show altitude changes over time

軌道要素

1 51733U 22016V 25349.28164530 .00002268 00000-0 16062-3 0 9998
2 51733 53.2187 338.0531 0001238 99.5670 260.5462 15.08821716210827
Epoch: Dec 15, 2025 • Age: 38 hours

現在のステータス

高度 553.7 km
速度 7.58 km/s
衛星直下点 -40.57°S, 159.47°E
打ち上げ日 Feb 21, 2022
運用期間 3.8 years
タイプ internet

技術仕様

分類 Payload
質量 297.00 kg
乾燥質量 275.00 kg
総質量 297.00 kg
長さ 0.20 m
直径 2.80 m
スパン 9.00 m
形状 Box + pan
製造者 SPXS
バスタイプ Starlink
フェーズステータス In Orbit
所有者/国 SPXS/US

大規模コンステレーション

Loading constellations...